Location: Unspecified
(0.0000°N, 0.0000°E)
Time: 15:19:34
(UTC+00:00)

Hubble Space Telescope - Pass Details

Date: 21 May 2022
Orbit: 533 x 537 km, 28.5° (Epoch: 19 May)

Event Time Altitude Azimuth Distance (km) Brightness Sun altitude
Rises 19:35:45 0° 289° (WNW) 2,656 5.8 -23.1°
Reaches altitude 10° 19:38:05 10° 282° (WNW) 1,769 4.5 -23.7°
Enters shadow 19:41:39 42° 225° (SW) 765 1.6 -24.5°
